Terminal Aerodrome Forecast
Issued by NWS

Home | Current Version | Previous Version | Graphics & Text | Print | Product List | Glossary On
Versions: 1 2 3 4 5 6 7 8 9 10 11 12 13 14 15 16
397
FTUS42 KMHX 130313 AAA
TAFPGV
TAF AMD
KPGV 130313Z 1303/1324 27004KT P6SM OVC070
     FM130700 29004KT P6SM SCT010
     FM131400 34012G21KT P6SM SKC
      AMD LTD TO CLD VIS AND WIND=

USA.gov is the U.S. government's official web portal to all federal, state and local government web resources and services.